Simultaneous Nadir Overpasses (SNOs) Predictions

Prediction of SNOs between GOES-17 and TERRA Satellite Orbit:

Table of predicted SNOs for the next 14.0 days since TLE Epoch: 11/26/2022
Index Date Time (GOES-17) GOES-17 Lat,Lon TERRA Lat,Lon Distance(km) Time Diff (sec)
1 11/27/2022 19:23:04 -0.01,-137.32 -0.04,-137.18 16.43 80
2 11/29/2022 19:07:22 -0.01,-137.31 -0.83,-133.38 445.97 80
3 11/30/2022 07:25:12 0.01,-137.30 -0.21,-138.36 120.33 80
4 12/02/2022 07:12:10 0.01,-137.28 0.60,-134.57 309.19 80
5 12/02/2022 19:29:51 -0.01,-137.28 0.48,-139.50 253.54 80
6 12/04/2022 19:16:49 -0.02,-137.26 -0.33,-135.71 175.57 80
7 12/05/2022 07:34:39 0.02,-137.25 -0.68,-140.69 390.79 80
8 12/07/2022 07:21:36 0.02,-137.22 0.09,-136.89 37.53 80
9 12/09/2022 07:05:53 0.02,-137.18 0.87,-133.09 465.23 80
10 12/09/2022 19:23:34 -0.03,-137.17 0.15,-138.04 98.21 80
